Location: Bluff Heights
(33.7692°N, 118.1592°W)
Time: 13:55:47
(UTC+00:00)

BlueWalker 3 - Visible Passes

Search period start: 02 December 2022 00:00
Search period end: 12 December 2022 00:00
Orbit: 500 x 519 km, 53.2° (Epoch: 01 December)

Date Brightness Start Highest point End Pass type
(mag) Time Alt. Az. Time Alt. Az. Time Alt. Az.
09 Dec 4.7 03:00:36 10° NW 03:00:58 12° NNW 03:00:58 12° NNW visible
10 Dec 3.6 02:42:09 10° NW 02:43:57 25° NNW 02:43:57 25° NNW visible
11 Dec 2.0 02:23:42 10° NW 02:27:13 58° NNE 02:27:13 58° NNE visible
